KK7N Weather Reports


time (UTC)temp
F
wind
direction
speed
knots
gust
knots
rain 1hr
in
rain 24hr
in
rain mn
in
humidity
%
barometer
mb
20260506084544 58 0 0.0 2.6 0.00 0.00 0.00 83 1017.8
20260506083050 59 0 0.0 2.6 0.00 0.00 0.00 84 1018.0
20260506081544 59 0 0.9 3.5 0.00 0.00 0.00 86 1017.8
20260506073046 59 0 0.0 0.0 0.00 0.00 0.00 87 1017.5
20260506071541 59 0 0.0 0.0 0.00 0.00 0.00 87 1017.4
20260506061543 60 0 0.0 0.0 0.00 0.00 0.00 85 1017.1
20260506044611 60 0 0.0 0.9 0.00 0.00 0.00 82 1016.5
20260506043046 60 0 0.0 0.9 0.00 0.00 0.00 81 1016.5
20260506041545 61 319 0.0 2.6 0.00 0.00 0.00 80 1016.2
20260506040047 61 0 0.0 0.0 0.00 0.00 0.00 81 1016.0
20260506034549 61 0 0.0 0.0 0.00 0.00 0.00 79 1015.9
20260506033041 62 0 0.0 0.0 0.00 0.00 0.00 78 1015.7
20260506031549 62 0 0.0 0.0 0.00 0.00 0.00 78 1015.6
20260506030044 62 0 0.0 0.0 0.00 0.00 0.00 77 1015.6
20260506024547 62 0 0.0 0.0 0.00 0.00 0.00 76 1015.5
20260506023057 62 0 0.0 0.9 0.00 0.00 0.00 75 1015.6
20260506021555 63 0 0.0 0.0 0.00 0.00 0.00 75 1015.4
20260506020043 63 0 0.0 0.0 0.00 0.00 0.00 75 1015.4
20260506014545 63 0 0.0 0.9 0.00 0.00 0.00 74 1015.4
20260506013043 64 0 0.0 0.9 0.00 0.00 0.00 74 1015.3
20260506011542 64 0 0.0 1.7 0.00 0.00 0.00 72 1015.4
20260506010055 64 0 0.0 1.7 0.00 0.00 0.00 72 1015.4
20260506004548 64 0 0.0 2.6 0.00 0.00 0.00 72 1015.5
20260506003042 64 0 0.0 3.5 0.00 0.00 0.00 69 1015.5
20260506001546 64 319 0.0 3.5 0.00 0.00 0.00 73 1015.5
20260506000048 64 0 0.0 4.3 0.00 0.00 0.00 69 1015.6
20260505234605 64 0 0.9 6.1 0.00 0.00 0.00 70 1015.8
20260505233043 64 270 2.6 6.1 0.00 0.00 0.00 71 1015.8
20260505231549 64 284 1.7 6.1 0.00 0.00 0.00 71 1015.9
20260505230047 64 322 1.7 7.8 0.00 0.00 0.00 71 1015.9
20260505224548 64 271 3.5 7.8 0.00 0.00 0.00 71 1016.0
20260505223044 64 286 1.7 7.0 0.00 0.00 0.00 71 1016.2
20260505221550 64 0 1.7 4.3 0.00 0.00 0.00 72 1016.0
20260505220051 64 0 0.0 2.6 0.00 0.00 0.00 73 1016.2
20260505214604 64 338 0.9 3.5 0.00 0.00 0.00 71 1016.3
20260505213058 65 0 0.0 3.5 0.00 0.00 0.00 70 1016.3
20260505211549 65 0 0.0 5.2 0.00 0.00 0.00 70 1016.3
20260505210057 65 346 1.7 4.3 0.00 0.00 0.00 69 1016.4
20260505204556 65 61 0.0 4.3 0.00 0.00 0.00 72 1016.4
20260505203054 62 0 0.0 2.6 0.00 0.00 0.00 78 1016.6
20260505201554 61 59 0.0 0.0 0.00 0.00 0.00 79 1016.8
20260505200105 61 0 0.0 0.9 0.00 0.00 0.00 77 1016.7
20260505194559 61 0 0.0 1.7 0.00 0.00 0.00 80 1016.8
20260505193051 60 0 0.0 0.9 0.00 0.00 0.00 79 1016.8
20260505191541 60 0 0.0 2.6 0.00 0.00 0.00 79 1016.8
20260505190056 60 59 0.0 2.6 0.00 0.00 0.00 80 1016.8
20260505184551 59 0 0.0 0.9 0.00 0.00 0.00 80 1016.9
20260505183054 59 252 0.9 3.5 0.00 0.00 0.00 79 1017.0
20260505181542 59 252 1.7 4.3 0.00 0.00 0.00 78 1016.9
20260505174559 59 265 0.0 3.5 0.00 0.00 0.00 78 1016.8
20260505173048 58 252 1.7 4.3 0.00 0.00 0.00 80 1016.7
20260505171547 58 0 0.0 1.7 0.00 0.00 0.00 81 1016.6
20260505170050 57 0 0.9 3.5 0.00 0.00 0.00 82 1016.7
20260505164545 57 214 0.0 2.6 0.00 0.00 0.00 83 1016.6
20260505163044 57 0 0.0 4.3 0.00 0.00 0.00 84 1016.5
20260505161558 56 0 0.0 4.3 0.00 0.00 0.00 85 1016.6
20260505153049 55 0 0.0 3.5 0.00 0.00 0.00 87 1016.4
20260505151548 55 0 0.0 2.6 0.00 0.00 0.00 87 1016.3
20260505124550 55 0 0.0 3.5 0.00 0.00 0.00 86 1015.3
20260505123054 55 0 0.0 3.5 0.00 0.00 0.00 85 1015.3
20260505121543 55 0 0.0 2.6 0.00 0.00 0.00 85 1015.3
20260505120044 55 0 0.0 4.3 0.00 0.00 0.00 84 1015.2
20260505114542 55 211 0.0 2.6 0.00 0.00 0.00 84 1015.2
20260505113056 55 211 0.0 4.3 0.00 0.00 0.00 84 1015.1
20260505111545 55 0 0.0 1.7 0.00 0.00 0.00 84 1015.2
20260505101548 56 215 0.0 5.2 0.00 0.00 0.00 82 1014.6
20260505100050 56 214 0.9 4.3 0.00 0.00 0.00 82 1014.6
20260505094544 56 0 0.0 3.5 0.00 0.00 0.00 81 1014.5
20260505093048 57 218 2.6 5.2 0.00 0.00 0.00 81 1014.5
20260505091559 57 235 2.6 7.0 0.00 0.00 0.00 80 1014.4
20260505090049 57 217 0.9 6.1 0.00 0.00 0.00 79 1014.3